| time (UTC) | temp F | wind direction | speed MPH | gust MPH | rain 1hr in | rain 24hr in | rain mn in | humidity % | barometer mb |
| 20260508131519 | 79 | 3 | 7.0 | 10.0 | 0.00 | 0.00 | 0.00 | 34 | 1020.7 |
| 20260508131016 | 79 | 30 | 9.0 | 11.0 | 0.00 | 0.00 | 0.00 | 31 | 1021.0 |
| 20260508130513 | 79 | 55 | 9.0 | 10.0 | 0.00 | 0.00 | 0.00 | 33 | 1020.9 |
| 20260508130009 | 79 | 15 | 3.0 | 10.0 | 0.00 | 0.00 | 0.00 | 36 | 1021.0 |
| 20260508125505 | 79 | 13 | 6.0 | 9.0 | 0.00 | 0.00 | 0.00 | 32 | 1020.9 |
| 20260508125003 | 79 | 14 | 5.0 | 10.0 | 0.00 | 0.00 | 0.00 | 32 | 1020.8 |
| 20260508124501 | 79 | 40 | 4.0 | 9.0 | 0.00 | 0.00 | 0.00 | 34 | 1021.0 |
| 20260508123957 | 79 | 28 | 5.0 | 9.0 | 0.00 | 0.00 | 0.00 | 32 | 1021.1 |
| 20260508123456 | 78 | 289 | 3.0 | 7.0 | 0.00 | 0.00 | 0.00 | 36 | 1021.0 |
| 20260508122952 | 78 | 34 | 5.0 | 11.0 | 0.00 | 0.00 | 0.00 | 35 | 1021.2 |
| 20260508122449 | 78 | 69 | 7.0 | 16.0 | 0.00 | 0.00 | 0.00 | 38 | 1021.2 |
| 20260508121946 | 78 | 34 | 3.0 | 13.0 | 0.00 | 0.00 | 0.00 | 37 | 1021.3 |
| 20260508121444 | 78 | 34 | 11.0 | 13.0 | 0.00 | 0.00 | 0.00 | 35 | 1021.4 |
| 20260508120942 | 79 | 18 | 7.0 | 11.0 | 0.00 | 0.00 | 0.00 | 35 | 1021.5 |
| 20260508120439 | 79 | 10 | 8.0 | 11.0 | 0.00 | 0.00 | 0.00 | 35 | 1021.5 |
| 20260508115937 | 79 | 22 | 5.0 | 10.0 | 0.00 | 0.00 | 0.00 | 34 | 1021.4 |
| 20260508115435 | 78 | 19 | 9.0 | 13.0 | 0.00 | 0.00 | 0.00 | 35 | 1021.4 |
| 20260508114931 | 79 | 23 | 9.0 | 15.0 | 0.00 | 0.00 | 0.00 | 38 | 1021.4 |
| 20260508114428 | 78 | 24 | 4.0 | 13.0 | 0.00 | 0.00 | 0.00 | 38 | 1021.4 |
| 20260508113924 | 78 | 354 | 4.0 | 9.0 | 0.00 | 0.00 | 0.00 | 39 | 1021.6 |
| 20260508113423 | 78 | 30 | 9.0 | 11.0 | 0.00 | 0.00 | 0.00 | 37 | 1021.4 |
| 20260508112919 | 77 | 66 | 8.0 | 16.0 | 0.00 | 0.00 | 0.00 | 39 | 1021.4 |
| 20260508112416 | 77 | 37 | 10.0 | 18.0 | 0.00 | 0.00 | 0.00 | 36 | 1021.5 |
| 20260508111913 | 77 | 33 | 12.0 | 15.0 | 0.00 | 0.00 | 0.00 | 39 | 1021.6 |
| 20260508111410 | 78 | 61 | 7.0 | 14.0 | 0.00 | 0.00 | 0.00 | 40 | 1021.3 |
| 20260508110907 | 77 | 33 | 10.0 | 17.0 | 0.00 | 0.00 | 0.00 | 40 | 1021.5 |
| 20260508110405 | 77 | 31 | 9.0 | 16.0 | 0.00 | 0.00 | 0.00 | 39 | 1021.7 |
| 20260508105904 | 77 | 8 | 16.0 | 18.0 | 0.00 | 0.00 | 0.00 | 39 | 1021.8 |
| 20260508105401 | 77 | 60 | 9.0 | 20.0 | 0.00 | 0.00 | 0.00 | 40 | 1021.6 |
| 20260508104858 | 78 | 40 | 10.0 | 16.0 | 0.00 | 0.00 | 0.00 | 41 | 1021.6 |
| 20260508104355 | 78 | 51 | 9.0 | 14.0 | 0.00 | 0.00 | 0.00 | 40 | 1021.5 |
| 20260508103852 | 77 | 21 | 14.0 | 18.0 | 0.00 | 0.00 | 0.00 | 42 | 1021.6 |
| 20260508103349 | 78 | 342 | 7.0 | 14.0 | 0.00 | 0.00 | 0.00 | 40 | 1021.7 |
| 20260508102847 | 78 | 24 | 12.0 | 20.0 | 0.00 | 0.00 | 0.00 | 39 | 1021.6 |
| 20260508102345 | 77 | 1 | 16.0 | 18.0 | 0.00 | 0.00 | 0.00 | 40 | 1021.8 |
| 20260508101842 | 77 | 108 | 8.0 | 16.0 | 0.00 | 0.00 | 0.00 | 41 | 1021.7 |
| 20260508101339 | 77 | 34 | 12.0 | 17.0 | 0.00 | 0.00 | 0.00 | 41 | 1021.6 |
| 20260508100836 | 77 | 28 | 9.0 | 21.0 | 0.00 | 0.00 | 0.00 | 41 | 1021.9 |
| 20260508100335 | 77 | 8 | 10.0 | 20.0 | 0.00 | 0.00 | 0.00 | 40 | 1021.8 |
| 20260508095830 | 77 | 50 | 12.0 | 15.0 | 0.00 | 0.00 | 0.00 | 39 | 1021.9 |
| 20260508095328 | 78 | 14 | 11.0 | 16.0 | 0.00 | 0.00 | 0.00 | 39 | 1021.9 |
| 20260508094825 | 77 | 66 | 13.0 | 17.0 | 0.00 | 0.00 | 0.00 | 39 | 1021.8 |
| 20260508094322 | 77 | 341 | 15.0 | 21.0 | 0.00 | 0.00 | 0.00 | 39 | 1022.1 |
| 20260508093819 | 77 | 356 | 10.0 | 20.0 | 0.00 | 0.00 | 0.00 | 40 | 1021.9 |
| 20260508093316 | 77 | 40 | 13.0 | 16.0 | 0.00 | 0.00 | 0.00 | 40 | 1022.1 |
| 20260508092813 | 77 | 57 | 12.0 | 17.0 | 0.00 | 0.00 | 0.00 | 40 | 1022.2 |
| 20260508092313 | 77 | 24 | 7.0 | 17.0 | 0.00 | 0.00 | 0.00 | 40 | 1022.2 |
| 20260508091809 | 77 | 9 | 10.0 | 20.0 | 0.00 | 0.00 | 0.00 | 39 | 1022.2 |
| 20260508091306 | 77 | 29 | 9.0 | 16.0 | 0.00 | 0.00 | 0.00 | 40 | 1022.2 |
| 20260508090804 | 77 | 107 | 6.0 | 17.0 | 0.00 | 0.00 | 0.00 | 39 | 1022.3 |
| 20260508090302 | 77 | 52 | 8.0 | 14.0 | 0.00 | 0.00 | 0.00 | 39 | 1022.4 |
| 20260508085757 | 78 | 323 | 14.0 | 18.0 | 0.00 | 0.00 | 0.00 | 36 | 1022.5 |
| 20260508085254 | 77 | 351 | 11.0 | 15.0 | 0.00 | 0.00 | 0.00 | 37 | 1022.5 |
| 20260508084750 | 77 | 11 | 12.0 | 16.0 | 0.00 | 0.00 | 0.00 | 37 | 1022.5 |
| 20260508084248 | 77 | 11 | 9.0 | 15.0 | 0.00 | 0.00 | 0.00 | 35 | 1022.3 |
| 20260508083745 | 77 | 354 | 10.0 | 15.0 | 0.00 | 0.00 | 0.00 | 36 | 1022.2 |
| 20260508083242 | 77 | 346 | 11.0 | 18.0 | 0.00 | 0.00 | 0.00 | 36 | 1022.6 |
| 20260508082737 | 77 | 355 | 13.0 | 15.0 | 0.00 | 0.00 | 0.00 | 35 | 1022.5 |
| 20260508082235 | 77 | 343 | 7.0 | 13.0 | 0.00 | 0.00 | 0.00 | 36 | 1022.6 |
| 20260508081732 | 77 | 357 | 8.0 | 13.0 | 0.00 | 0.00 | 0.00 | 34 | 1022.6 |
| 20260508081228 | 77 | 16 | 11.0 | 14.0 | 0.00 | 0.00 | 0.00 | 35 | 1022.7 |
| 20260508080725 | 76 | 322 | 9.0 | 14.0 | 0.00 | 0.00 | 0.00 | 36 | 1022.5 |
| 20260508080223 | 77 | 326 | 8.0 | 10.0 | 0.00 | 0.00 | 0.00 | 36 | 1022.6 |
| 20260508075719 | 76 | 335 | 8.0 | 15.0 | 0.00 | 0.00 | 0.00 | 37 | 1022.8 |
| 20260508075217 | 76 | 6 | 12.0 | 14.0 | 0.00 | 0.00 | 0.00 | 35 | 1022.8 |
| 20260508074714 | 75 | 316 | 11.0 | 13.0 | 0.00 | 0.00 | 0.00 | 36 | 1022.7 |
| 20260508074212 | 76 | 346 | 10.0 | 16.0 | 0.00 | 0.00 | 0.00 | 36 | 1022.9 |
| 20260508073708 | 76 | 109 | 2.0 | 9.0 | 0.00 | 0.00 | 0.00 | 36 | 1022.6 |
| 20260508073207 | 75 | 348 | 9.0 | 14.0 | 0.00 | 0.00 | 0.00 | 36 | 1022.9 |
| 20260508072702 | 76 | 60 | 4.0 | 11.0 | 0.00 | 0.00 | 0.00 | 37 | 1022.9 |
| 20260508072159 | 75 | 333 | 7.0 | 8.0 | 0.00 | 0.00 | 0.00 | 36 | 1022.7 |
| 20260508071656 | 75 | 315 | 8.0 | 13.0 | 0.00 | 0.00 | 0.00 | 36 | 1022.7 |
| 20260508071155 | 75 | 3 | 9.0 | 10.0 | 0.00 | 0.00 | 0.00 | 35 | 1022.7 |
| 20260508070652 | 75 | 340 | 5.0 | 8.0 | 0.00 | 0.00 | 0.00 | 35 | 1022.9 |
| 20260508070151 | 75 | 333 | 7.0 | 13.0 | 0.00 | 0.00 | 0.00 | 34 | 1022.9 |
| 20260508065647 | 75 | 320 | 6.0 | 8.0 | 0.00 | 0.00 | 0.00 | 36 | 1022.8 |
| 20260508065145 | 75 | 309 | 5.0 | 7.0 | 0.00 | 0.00 | 0.00 | 33 | 1022.8 |
| 20260508064643 | 75 | 355 | 6.0 | 8.0 | 0.00 | 0.00 | 0.00 | 34 | 1022.8 |
| 20260508064141 | 74 | 27 | 5.0 | 10.0 | 0.00 | 0.00 | 0.00 | 38 | 1022.9 |
| 20260508063638 | 74 | 330 | 5.0 | 9.0 | 0.00 | 0.00 | 0.00 | 39 | 1022.9 |
| 20260508063136 | 74 | 341 | 9.0 | 11.0 | 0.00 | 0.00 | 0.00 | 38 | 1022.8 |
| 20260508062633 | 73 | 332 | 4.0 | 8.0 | 0.00 | 0.00 | 0.00 | 43 | 1023.0 |
| 20260508062129 | 73 | 297 | 9.0 | 10.0 | 0.00 | 0.00 | 0.00 | 42 | 1023.0 |
| 20260508061627 | 73 | 322 | 6.0 | 9.0 | 0.00 | 0.00 | 0.00 | 44 | 1022.7 |
| 20260508061124 | 73 | 263 | 7.0 | 8.0 | 0.00 | 0.00 | 0.00 | 44 | 1022.8 |
| 20260508060621 | 73 | 271 | 4.0 | 10.0 | 0.00 | 0.00 | 0.00 | 44 | 1022.8 |
| 20260508060118 | 72 | 348 | 9.0 | 11.0 | 0.00 | 0.00 | 0.00 | 44 | 1022.6 |
| 20260508055613 | 71 | 314 | 8.0 | 11.0 | 0.00 | 0.00 | 0.00 | 45 | 1022.9 |
| 20260508055111 | 72 | 319 | 6.0 | 8.0 | 0.00 | 0.00 | 0.00 | 45 | 1022.8 |
| 20260508054607 | 71 | 286 | 6.0 | 10.0 | 0.00 | 0.00 | 0.00 | 46 | 1022.6 |
| 20260508054105 | 71 | 317 | 9.0 | 10.0 | 0.00 | 0.00 | 0.00 | 46 | 1022.6 |
| 20260508053601 | 70 | 304 | 9.0 | 11.0 | 0.00 | 0.00 | 0.00 | 46 | 1022.6 |
| 20260508053059 | 70 | 316 | 5.0 | 11.0 | 0.00 | 0.00 | 0.00 | 47 | 1022.7 |
| 20260508052556 | 70 | 281 | 3.0 | 14.0 | 0.00 | 0.00 | 0.00 | 47 | 1022.7 |
| 20260508052053 | 70 | 305 | 9.0 | 13.0 | 0.00 | 0.00 | 0.00 | 46 | 1022.7 |
| 20260508051549 | 69 | 300 | 7.0 | 10.0 | 0.00 | 0.00 | 0.00 | 47 | 1022.8 |
| 20260508051045 | 69 | 323 | 5.0 | 13.0 | 0.00 | 0.00 | 0.00 | 47 | 1022.7 |
| 20260508050541 | 69 | 301 | 9.0 | 11.0 | 0.00 | 0.00 | 0.00 | 48 | 1022.7 |
| 20260508050038 | 68 | 288 | 4.0 | 9.0 | 0.00 | 0.00 | 0.00 | 49 | 1022.5 |
| 20260508045534 | 68 | 296 | 8.0 | 10.0 | 0.00 | 0.00 | 0.00 | 48 | 1022.7 |
| 20260508045033 | 68 | 317 | 6.0 | 9.0 | 0.00 | 0.00 | 0.00 | 49 | 1022.4 |
| 20260508044530 | 67 | 302 | 7.0 | 9.0 | 0.00 | 0.00 | 0.00 | 49 | 1022.3 |
| 20260508044025 | 67 | 308 | 11.0 | 13.0 | 0.00 | 0.00 | 0.00 | 49 | 1022.5 |
| 20260508043522 | 67 | 273 | 4.0 | 6.0 | 0.00 | 0.00 | 0.00 | 50 | 1022.6 |
| 20260508043020 | 67 | 292 | 9.0 | 10.0 | 0.00 | 0.00 | 0.00 | 50 | 1022.7 |
| 20260508042516 | 66 | 302 | 5.0 | 10.0 | 0.00 | 0.00 | 0.00 | 51 | 1022.3 |
| 20260508042014 | 66 | 269 | 7.0 | 10.0 | 0.00 | 0.00 | 0.00 | 51 | 1022.5 |
| 20260508041510 | 65 | 314 | 5.0 | 10.0 | 0.00 | 0.00 | 0.00 | 52 | 1022.2 |
| 20260508041007 | 65 | 304 | 8.0 | 11.0 | 0.00 | 0.00 | 0.00 | 52 | 1022.3 |
| 20260508040504 | 64 | 329 | 6.0 | 11.0 | 0.00 | 0.00 | 0.00 | 52 | 1022.1 |
| 20260508040001 | 64 | 321 | 7.0 | 13.0 | 0.00 | 0.00 | 0.00 | 53 | 1022.1 |
| 20260508035458 | 64 | 316 | 7.0 | 10.0 | 0.00 | 0.00 | 0.00 | 55 | 1022.1 |
| 20260508034955 | 64 | 305 | 7.0 | 10.0 | 0.00 | 0.00 | 0.00 | 56 | 1021.9 |
| 20260508034452 | 63 | 322 | 9.0 | 13.0 | 0.00 | 0.00 | 0.00 | 57 | 1021.9 |
| 20260508033949 | 63 | 320 | 8.0 | 11.0 | 0.00 | 0.00 | 0.00 | 57 | 1021.9 |
| 20260508033447 | 63 | 330 | 11.0 | 14.0 | 0.00 | 0.00 | 0.00 | 58 | 1021.9 |
| 20260508032944 | 63 | 290 | 6.0 | 13.0 | 0.00 | 0.00 | 0.00 | 58 | 1022.0 |
| 20260508032441 | 63 | 338 | 7.0 | 11.0 | 0.00 | 0.00 | 0.00 | 58 | 1021.5 |
| 20260508031938 | 63 | 315 | 9.0 | 14.0 | 0.00 | 0.00 | 0.00 | 59 | 1021.7 |
| 20260508031436 | 62 | 331 | 9.0 | 14.0 | 0.00 | 0.00 | 0.00 | 60 | 1021.9 |
| 20260508030931 | 62 | 345 | 7.0 | 16.0 | 0.00 | 0.00 | 0.00 | 60 | 1021.6 |
| 20260508030428 | 62 | 293 | 10.0 | 14.0 | 0.00 | 0.00 | 0.00 | 61 | 1021.8 |
| 20260508025926 | 62 | 314 | 9.0 | 13.0 | 0.00 | 0.00 | 0.00 | 63 | 1021.8 |
| 20260508025422 | 61 | 309 | 7.0 | 10.0 | 0.00 | 0.00 | 0.00 | 64 | 1021.5 |
| 20260508024919 | 61 | 321 | 10.0 | 14.0 | 0.00 | 0.00 | 0.00 | 65 | 1021.6 |
| 20260508024416 | 60 | 301 | 9.0 | 14.0 | 0.00 | 0.00 | 0.00 | 67 | 1021.4 |
| 20260508023912 | 60 | 295 | 7.0 | 15.0 | 0.00 | 0.00 | 0.00 | 68 | 1021.3 |
| 20260508023409 | 60 | 324 | 11.0 | 13.0 | 0.00 | 0.00 | 0.00 | 69 | 1021.5 |
| 20260508022906 | 60 | 311 | 10.0 | 11.0 | 0.00 | 0.00 | 0.00 | 70 | 1021.3 |
| 20260508022401 | 60 | 301 | 7.0 | 10.0 | 0.00 | 0.00 | 0.00 | 70 | 1021.2 |
| 20260508021859 | 60 | 272 | 6.0 | 10.0 | 0.00 | 0.00 | 0.00 | 70 | 1021.3 |
| 20260508021355 | 60 | 334 | 6.0 | 9.0 | 0.00 | 0.00 | 0.00 | 70 | 1021.3 |
| 20260508020851 | 60 | 304 | 8.0 | 10.0 | 0.00 | 0.00 | 0.00 | 70 | 1021.4 |
| 20260508020349 | 60 | 327 | 8.0 | 13.0 | 0.00 | 0.00 | 0.00 | 70 | 1021.3 |
| 20260508015846 | 60 | 300 | 7.0 | 9.0 | 0.00 | 0.00 | 0.00 | 71 | 1021.3 |
| 20260508015344 | 60 | 285 | 7.0 | 11.0 | 0.00 | 0.00 | 0.00 | 71 | 1021.2 |
| 20260508014839 | 60 | 275 | 8.0 | 11.0 | 0.00 | 0.00 | 0.00 | 70 | 1021.1 |
| 20260508014337 | 61 | 315 | 7.0 | 10.0 | 0.00 | 0.00 | 0.00 | 70 | 1021.4 |
| 20260508013837 | 61 | 321 | 9.0 | 13.0 | 0.00 | 0.00 | 0.00 | 69 | 1021.2 |
| 20260508013334 | 61 | 318 | 9.0 | 15.0 | 0.00 | 0.00 | 0.00 | 69 | 1021.2 |
| 20260508012832 | 61 | 311 | 10.0 | 14.0 | 0.00 | 0.00 | 0.00 | 69 | 1021.5 |
| 20260508012329 | 61 | 324 | 9.0 | 13.0 | 0.00 | 0.00 | 0.00 | 69 | 1021.5 |
| 20260508011827 | 61 | 307 | 11.0 | 14.0 | 0.00 | 0.00 | 0.00 | 69 | 1021.2 |
| 20260508011324 | 61 | 320 | 11.0 | 14.0 | 0.00 | 0.00 | 0.00 | 69 | 1021.2 |
| 20260508010821 | 61 | 327 | 10.0 | 11.0 | 0.00 | 0.00 | 0.00 | 69 | 1021.1 |
| 20260508010319 | 61 | 310 | 8.0 | 10.0 | 0.00 | 0.00 | 0.00 | 69 | 1021.1 |
| 20260508005815 | 61 | 312 | 9.0 | 13.0 | 0.00 | 0.00 | 0.00 | 69 | 1021.3 |
| 20260508005312 | 62 | 316 | 14.0 | 17.0 | 0.00 | 0.00 | 0.00 | 69 | 1021.2 |
| 20260508004808 | 61 | 323 | 12.0 | 14.0 | 0.00 | 0.00 | 0.00 | 70 | 1021.3 |
| 20260508004304 | 61 | 304 | 6.0 | 14.0 | 0.00 | 0.00 | 0.00 | 71 | 1021.6 |
| 20260508003801 | 61 | 301 | 7.0 | 10.0 | 0.00 | 0.00 | 0.00 | 71 | 1021.5 |
| 20260508003259 | 61 | 321 | 8.0 | 11.0 | 0.00 | 0.00 | 0.00 | 71 | 1021.3 |
| 20260508002755 | 61 | 295 | 7.0 | 11.0 | 0.00 | 0.00 | 0.00 | 72 | 1021.3 |
| 20260508002252 | 61 | 318 | 11.0 | 13.0 | 0.00 | 0.00 | 0.00 | 72 | 1021.5 |
| 20260508001748 | 61 | 332 | 9.0 | 14.0 | 0.00 | 0.00 | 0.00 | 73 | 1021.6 |
| 20260508001244 | 61 | 300 | 9.0 | 14.0 | 0.00 | 0.00 | 0.00 | 73 | 1021.7 |
| 20260508000740 | 61 | 255 | 8.0 | 13.0 | 0.00 | 0.00 | 0.00 | 73 | 1021.7 |
| 20260508000238 | 62 | 260 | 11.0 | 16.0 | 0.00 | 0.00 | 0.00 | 73 | 1021.6 |
| 20260507235734 | 62 | 315 | 9.0 | 17.0 | 0.00 | 0.00 | 0.00 | 73 | 1021.4 |
| 20260507235231 | 61 | 298 | 9.0 | 13.0 | 0.00 | 0.00 | 0.00 | 74 | 1021.5 |
| 20260507234728 | 61 | 307 | 9.0 | 13.0 | 0.00 | 0.00 | 0.00 | 75 | 1021.4 |
| 20260507234225 | 61 | 287 | 7.0 | 15.0 | 0.00 | 0.00 | 0.00 | 75 | 1021.4 |
| 20260507233721 | 61 | 299 | 10.0 | 16.0 | 0.00 | 0.00 | 0.00 | 77 | 1021.9 |
| 20260507233219 | 61 | 282 | 11.0 | 15.0 | 0.00 | 0.00 | 0.00 | 78 | 1021.6 |
| 20260507232716 | 61 | 296 | 15.0 | 17.0 | 0.00 | 0.00 | 0.00 | 79 | 1021.7 |
| 20260507232213 | 61 | 299 | 8.0 | 13.0 | 0.00 | 0.00 | 0.00 | 79 | 1021.6 |
| 20260507231710 | 61 | 339 | 9.0 | 14.0 | 0.00 | 0.00 | 0.00 | 80 | 1021.6 |
| 20260507231207 | 61 | 319 | 9.0 | 15.0 | 0.00 | 0.00 | 0.00 | 80 | 1021.4 |
| 20260507230703 | 61 | 319 | 13.0 | 15.0 | 0.00 | 0.00 | 0.00 | 80 | 1021.5 |
| 20260507230201 | 61 | 312 | 12.0 | 15.0 | 0.00 | 0.00 | 0.00 | 81 | 1021.7 |
| 20260507225700 | 61 | 337 | 9.0 | 11.0 | 0.00 | 0.00 | 0.00 | 81 | 1021.7 |
| 20260507225157 | 61 | 311 | 10.0 | 13.0 | 0.00 | 0.00 | 0.00 | 81 | 1021.9 |
| 20260507224653 | 61 | 331 | 11.0 | 14.0 | 0.00 | 0.00 | 0.00 | 82 | 1021.9 |
| 20260507224149 | 61 | 297 | 8.0 | 15.0 | 0.00 | 0.00 | 0.00 | 82 | 1021.7 |
| 20260507223645 | 61 | 309 | 9.0 | 11.0 | 0.00 | 0.00 | 0.00 | 82 | 1021.9 |
| 20260507223143 | 61 | 313 | 9.0 | 14.0 | 0.00 | 0.00 | 0.00 | 83 | 1021.9 |
| 20260507222639 | 61 | 310 | 7.0 | 13.0 | 0.00 | 0.00 | 0.00 | 83 | 1021.9 |
| 20260507222136 | 61 | 316 | 9.0 | 15.0 | 0.00 | 0.00 | 0.00 | 83 | 1022.0 |
| 20260507221632 | 61 | 308 | 9.0 | 14.0 | 0.00 | 0.00 | 0.00 | 83 | 1022.2 |
| 20260507221129 | 61 | 325 | 9.0 | 15.0 | 0.00 | 0.00 | 0.00 | 83 | 1022.3 |
| 20260507220626 | 61 | 314 | 9.0 | 15.0 | 0.00 | 0.00 | 0.00 | 82 | 1022.2 |
| 20260507220124 | 61 | 9 | 7.0 | 13.0 | 0.00 | 0.00 | 0.00 | 82 | 1022.3 |
| 20260507215619 | 61 | 326 | 8.0 | 13.0 | 0.00 | 0.00 | 0.00 | 82 | 1022.2 |
| 20260507215117 | 61 | 342 | 8.0 | 13.0 | 0.00 | 0.00 | 0.00 | 82 | 1022.5 |
| 20260507214614 | 61 | 322 | 11.0 | 13.0 | 0.00 | 0.00 | 0.00 | 82 | 1022.6 |
| 20260507214110 | 61 | 312 | 9.0 | 13.0 | 0.00 | 0.00 | 0.00 | 83 | 1022.7 |
| 20260507213607 | 61 | 302 | 8.0 | 13.0 | 0.00 | 0.00 | 0.00 | 83 | 1022.6 |
| 20260507213104 | 62 | 302 | 8.0 | 13.0 | 0.00 | 0.00 | 0.00 | 82 | 1022.7 |
| 20260507212600 | 62 | 305 | 6.0 | 9.0 | 0.00 | 0.00 | 0.00 | 82 | 1022.8 |
| 20260507212057 | 62 | 339 | 9.0 | 13.0 | 0.00 | 0.00 | 0.00 | 81 | 1022.9 |
| 20260507211554 | 62 | 317 | 6.0 | 14.0 | 0.00 | 0.00 | 0.00 | 81 | 1022.7 |
| 20260507211050 | 62 | 349 | 11.0 | 13.0 | 0.00 | 0.00 | 0.00 | 81 | 1022.6 |
| 20260507210547 | 62 | 328 | 10.0 | 13.0 | 0.00 | 0.00 | 0.00 | 81 | 1022.4 |
| 20260507210044 | 62 | 347 | 9.0 | 15.0 | 0.00 | 0.00 | 0.00 | 81 | 1022.7 |
| 20260507205540 | 62 | 311 | 9.0 | 15.0 | 0.00 | 0.00 | 0.00 | 81 | 1022.7 |
| 20260507205037 | 62 | 286 | 8.0 | 11.0 | 0.00 | 0.00 | 0.00 | 81 | 1022.4 |
| 20260507204533 | 62 | 342 | 6.0 | 11.0 | 0.00 | 0.00 | 0.00 | 81 | 1022.5 |
| 20260507204031 | 62 | 295 | 7.0 | 10.0 | 0.00 | 0.00 | 0.00 | 81 | 1022.7 |
| 20260507203529 | 62 | 319 | 6.0 | 13.0 | 0.00 | 0.00 | 0.00 | 81 | 1022.5 |
| 20260507203026 | 62 | 307 | 6.0 | 9.0 | 0.00 | 0.00 | 0.00 | 80 | 1022.5 |
| 20260507202521 | 62 | 290 | 5.0 | 9.0 | 0.00 | 0.00 | 0.00 | 80 | 1022.8 |
| 20260507202018 | 62 | 307 | 5.0 | 9.0 | 0.00 | 0.00 | 0.00 | 80 | 1022.6 |
| 20260507201514 | 62 | 295 | 5.0 | 7.0 | 0.00 | 0.00 | 0.00 | 79 | 1022.8 |
| 20260507201010 | 62 | 315 | 4.0 | 5.0 | 0.00 | 0.00 | 0.00 | 78 | 1022.7 |
| 20260507200505 | 62 | 320 | 6.0 | 7.0 | 0.00 | 0.00 | 0.00 | 78 | 1022.6 |
| 20260507200001 | 62 | 319 | 5.0 | 6.0 | 0.00 | 0.00 | 0.00 | 77 | 1022.6 |
| 20260507195459 | 62 | 324 | 1.0 | 5.0 | 0.00 | 0.00 | 0.00 | 75 | 1022.8 |
| 20260507194956 | 61 | 158 | 0.0 | 2.0 | 0.00 | 0.00 | 0.00 | 75 | 1022.6 |
| 20260507194453 | 61 | 140 | 0.0 | 2.0 | 0.00 | 0.00 | 0.00 | 74 | 1022.8 |
| 20260507193948 | 62 | 152 | 0.0 | 0.0 | 0.00 | 0.00 | 0.00 | 73 | 1022.7 |
| 20260507193446 | 62 | 164 | 0.0 | 1.0 | 0.00 | 0.00 | 0.00 | 73 | 1022.6 |
| 20260507192942 | 62 | 155 | 1.0 | 3.0 | 0.00 | 0.00 | 0.00 | 72 | 1022.5 |
| 20260507192438 | 62 | 321 | 3.0 | 3.0 | 0.00 | 0.00 | 0.00 | 72 | 1022.5 |
| 20260507191936 | 62 | 351 | 3.0 | 5.0 | 0.00 | 0.00 | 0.00 | 72 | 1022.5 |
| 20260507191432 | 62 | 343 | 3.0 | 3.0 | 0.00 | 0.00 | 0.00 | 74 | 1022.5 |
| 20260507190928 | 62 | 37 | 5.0 | 7.0 | 0.00 | 0.00 | 0.00 | 75 | 1022.5 |
| 20260507190426 | 61 | 355 | 2.0 | 5.0 | 0.00 | 0.00 | 0.00 | 76 | 1022.6 |
| 20260507185925 | 61 | 280 | 4.0 | 5.0 | 0.00 | 0.00 | 0.00 | 77 | 1022.3 |
| 20260507185422 | 61 | 297 | 3.0 | 3.0 | 0.00 | 0.00 | 0.00 | 76 | 1022.7 |
| 20260507184919 | 61 | 276 | 3.0 | 5.0 | 0.00 | 0.00 | 0.00 | 77 | 1022.4 |
| 20260507184416 | 61 | 135 | 0.0 | 1.0 | 0.00 | 0.00 | 0.00 | 76 | 1022.3 |
| 20260507183914 | 62 | 109 | 1.0 | 1.0 | 0.00 | 0.00 | 0.00 | 75 | 1022.3 |
| 20260507183410 | 62 | 113 | 1.0 | 1.0 | 0.00 | 0.00 | 0.00 | 75 | 1022.3 |
| 20260507182908 | 62 | 80 | 1.0 | 2.0 | 0.00 | 0.00 | 0.00 | 75 | 1022.2 |
| 20260507182403 | 62 | 107 | 1.0 | 1.0 | 0.00 | 0.00 | 0.00 | 74 | 1022.2 |
| 20260507181900 | 62 | 117 | 0.0 | 1.0 | 0.00 | 0.00 | 0.00 | 73 | 1022.2 |
| 20260507181356 | 62 | 132 | 0.0 | 1.0 | 0.00 | 0.00 | 0.00 | 73 | 1022.2 |
| 20260507180853 | 62 | 231 | 1.0 | 2.0 | 0.00 | 0.00 | 0.00 | 73 | 1021.9 |
| 20260507180350 | 62 | 202 | 1.0 | 2.0 | 0.00 | 0.00 | 0.00 | 73 | 1021.9 |
| 20260507175845 | 62 | 216 | 1.0 | 1.0 | 0.00 | 0.00 | 0.00 | 73 | 1022.0 |
| 20260507175343 | 62 | 126 | 1.0 | 1.0 | 0.00 | 0.00 | 0.00 | 72 | 1021.9 |
| 20260507174840 | 63 | 128 | 0.0 | 1.0 | 0.00 | 0.00 | 0.00 | 72 | 1021.8 |
| 20260507174338 | 63 | 135 | 0.0 | 0.0 | 0.00 | 0.00 | 0.00 | 72 | 1022.0 |
| 20260507173835 | 63 | 117 | 0.0 | 1.0 | 0.00 | 0.00 | 0.00 | 71 | 1021.8 |
| 20260507173332 | 63 | 153 | 0.0 | 0.0 | 0.00 | 0.00 | 0.00 | 71 | 1021.8 |
| 20260507172828 | 63 | 219 | 1.0 | 2.0 | 0.00 | 0.00 | 0.00 | 71 | 1021.8 |
| 20260507172325 | 63 | 208 | 1.0 | 2.0 | 0.00 | 0.00 | 0.00 | 71 | 1021.9 |
| 20260507171821 | 64 | 218 | 0.0 | 0.0 | 0.00 | 0.00 | 0.00 | 70 | 1021.7 |
| 20260507171318 | 64 | 168 | 0.0 | 0.0 | 0.00 | 0.00 | 0.00 | 69 | 1021.7 |
| 20260507170815 | 64 | 157 | 0.0 | 0.0 | 0.00 | 0.00 | 0.00 | 69 | 1021.7 |
| 20260507170311 | 65 | 159 | 0.0 | 0.0 | 0.00 | 0.00 | 0.00 | 68 | 1021.7 |
| 20260507165807 | 65 | 155 | 0.0 | 0.0 | 0.00 | 0.00 | 0.00 | 68 | 1021.7 |
| 20260507165306 | 65 | 148 | 0.0 | 0.0 | 0.00 | 0.00 | 0.00 | 67 | 1021.7 |
| 20260507164759 | 66 | 166 | 0.0 | 0.0 | 0.00 | 0.00 | 0.00 | 66 | 1021.8 |
| 20260507164257 | 66 | 154 | 0.0 | 0.0 | 0.00 | 0.00 | 0.00 | 66 | 1021.7 |
| 20260507163754 | 66 | 192 | 1.0 | 2.0 | 0.00 | 0.00 | 0.00 | 66 | 1021.8 |
| 20260507163252 | 66 | 229 | 2.0 | 2.0 | 0.00 | 0.00 | 0.00 | 65 | 1021.8 |
| 20260507162747 | 66 | 181 | 1.0 | 2.0 | 0.00 | 0.00 | 0.00 | 65 | 1021.8 |
| 20260507162243 | 66 | 192 | 1.0 | 2.0 | 0.00 | 0.00 | 0.00 | 65 | 1021.6 |
| 20260507161741 | 66 | 214 | 2.0 | 3.0 | 0.00 | 0.00 | 0.00 | 64 | 1021.7 |
| 20260507161237 | 67 | 183 | 2.0 | 3.0 | 0.00 | 0.00 | 0.00 | 63 | 1021.6 |
| 20260507160732 | 67 | 209 | 3.0 | 3.0 | 0.00 | 0.00 | 0.00 | 63 | 1021.6 |
| 20260507160229 | 67 | 200 | 2.0 | 3.0 | 0.00 | 0.00 | 0.00 | 62 | 1021.8 |
| 20260507155725 | 67 | 193 | 2.0 | 2.0 | 0.00 | 0.00 | 0.00 | 63 | 1021.6 |
| 20260507155221 | 67 | 192 | 3.0 | 3.0 | 0.00 | 0.00 | 0.00 | 63 | 1021.7 |
| 20260507154719 | 68 | 238 | 3.0 | 3.0 | 0.00 | 0.00 | 0.00 | 62 | 1021.6 |
| 20260507154216 | 68 | 203 | 3.0 | 5.0 | 0.00 | 0.00 | 0.00 | 64 | 1021.6 |
| 20260507153712 | 68 | 200 | 4.0 | 5.0 | 0.00 | 0.00 | 0.00 | 62 | 1021.6 |
| 20260507153209 | 68 | 193 | 4.0 | 6.0 | 0.00 | 0.00 | 0.00 | 62 | 1021.8 |
| 20260507152705 | 68 | 213 | 4.0 | 5.0 | 0.00 | 0.00 | 0.00 | 63 | 1021.7 |
| 20260507152201 | 68 | 193 | 4.0 | 6.0 | 0.00 | 0.00 | 0.00 | 63 | 1021.7 |
| 20260507151657 | 68 | 185 | 4.0 | 7.0 | 0.00 | 0.00 | 0.00 | 63 | 1021.9 |
| 20260507151154 | 68 | 186 | 2.0 | 6.0 | 0.00 | 0.00 | 0.00 | 64 | 1021.8 |
| 20260507150651 | 68 | 201 | 7.0 | 7.0 | 0.00 | 0.00 | 0.00 | 64 | 1021.7 |
| 20260507150148 | 68 | 202 | 5.0 | 7.0 | 0.00 | 0.00 | 0.00 | 64 | 1021.9 |
| 20260507145643 | 68 | 170 | 5.0 | 8.0 | 0.00 | 0.00 | 0.00 | 64 | 1022.0 |
| 20260507145141 | 68 | 206 | 7.0 | 8.0 | 0.00 | 0.00 | 0.00 | 64 | 1021.6 |
| 20260507144637 | 68 | 171 | 3.0 | 6.0 | 0.00 | 0.00 | 0.00 | 64 | 1021.6 |
| 20260507144136 | 68 | 172 | 5.0 | 6.0 | 0.00 | 0.00 | 0.00 | 65 | 1021.9 |
| 20260507143632 | 68 | 180 | 7.0 | 9.0 | 0.00 | 0.00 | 0.00 | 64 | 1021.8 |
| 20260507143129 | 69 | 148 | 4.0 | 7.0 | 0.00 | 0.00 | 0.00 | 64 | 1021.9 |
| 20260507142624 | 69 | 199 | 5.0 | 7.0 | 0.00 | 0.00 | 0.00 | 64 | 1021.8 |
| 20260507142122 | 69 | 187 | 7.0 | 9.0 | 0.00 | 0.00 | 0.00 | 62 | 1021.6 |
| 20260507141618 | 69 | 203 | 7.0 | 8.0 | 0.00 | 0.00 | 0.00 | 63 | 1021.8 |
| 20260507141115 | 68 | 198 | 4.0 | 9.0 | 0.00 | 0.00 | 0.00 | 63 | 1021.7 |
| 20260507140611 | 68 | 148 | 4.0 | 9.0 | 0.00 | 0.00 | 0.00 | 63 | 1021.9 |
| 20260507140109 | 68 | 178 | 7.0 | 8.0 | 0.00 | 0.00 | 0.00 | 62 | 1021.9 |
| 20260507135606 | 69 | 221 | 5.0 | 8.0 | 0.00 | 0.00 | 0.00 | 61 | 1021.8 |
| 20260507135103 | 69 | 200 | 5.0 | 7.0 | 0.00 | 0.00 | 0.00 | 61 | 1021.9 |
| 20260507134559 | 69 | 212 | 5.0 | 9.0 | 0.00 | 0.00 | 0.00 | 63 | 1022.0 |
| 20260507134055 | 69 | 229 | 4.0 | 7.0 | 0.00 | 0.00 | 0.00 | 62 | 1021.8 |
| 20260507133551 | 69 | 166 | 5.0 | 10.0 | 0.00 | 0.00 | 0.00 | 63 | 1022.0 |
| 20260507133049 | 69 | 155 | 7.0 | 10.0 | 0.00 | 0.00 | 0.00 | 63 | 1022.1 |
| 20260507132546 | 69 | 192 | 7.0 | 9.0 | 0.00 | 0.00 | 0.00 | 62 | 1022.1 |
| 20260507132042 | 69 | 209 | 7.0 | 9.0 | 0.00 | 0.00 | 0.00 | 63 | 1022.2 |